Regional Weather Roundup
Issued by NWS Upton, NY

Current Version | Previous Version | Text Only | Print | Product List | Glossary Off
Versions: 1 2 3 4 5 6 7 8 9 10 11 12 13 14 15 16 17 18 19 20 21 22 23 24 25 26 27 28 29 30 31 32 33 34 35 36 37 38 39 40 41 42 43 44 45 46 47 48 49 50
249 ASUS41 KOKX 231708 RWROKX REGIONAL WEATHER ROUNDUP NATIONAL WEATHER SERVICE NEW YORK NY 1200 PM EST MON JAN 23 2017 NOTE: "FAIR" INDICATES FEW OR NO CLOUDS BELOW 12,000 FEET WITH NO SIGNIFICANT WEATHER AND/OR OBSTRUCTIONS TO VISIBILITY. NYZ071-072-176-178-NJZ106-104-231800- NEW YORK CITY METRO AREA CITY SKY/WX TMP DP RH WIND PRES REMARKS Central Park CLOUDY 40 31 70 E20G35 29.81F WCI 30 Wall St Helipt N/A 41 33 73 NE24G35 29.78 LaGuardia APRT CLOUDY 42 30 62 E35G46 29.79F Kennedy INTL CLOUDY 42 34 73 NE26G35 29.79F Breezy Point N/A 39 N/A N/A NE21G31 N/A WCI 29 Newark/Liberty CLOUDY 41 31 67 NE30G41 29.78F Teterboro CLOUDY 41 30 65 E20G31 29.79F $$ NYZ177-179-078>081-231800- LONG ISLAND NEW YORK CITY SKY/WX TMP DP RH WIND PRES REMARKS Jones Beach N/A 39 N/A N/A NE33G40 N/A WCI 27 Matinecock PT NOT AVBL Farmingdale CLOUDY 40 31 70 E21G36 29.78F WCI 30 MacArthur/ISP LGT RAIN 39 33 79 E28G43 29.78F WCI 28 Shirley CLOUDY 38 34 85 NE9G22 29.81F WCI 31 Westhampton CLOUDY 40 31 70 E23G38 29.83F WCI 30 Southampton NOT AVBL Bridgehampton NOT AVBL East Hampton CLOUDY 38 31 74 E23G36 29.84F WCI 28 Montauk N/A 40 31 70 NE22G36 29.86F WCI 30 $$ NYZ052-065-067-231800- HUDSON VALLEY CITY SKY/WX TMP DP RH WIND PRES REMARKS White Plains CLOUDY 40 28 62 NE17G28 29.79F WCI 31 Newburgh CLOUDY 37 30 75 E21G32 29.85F WCI 27 Montgomery CLOUDY 39 29 67 E14G23 29.83F WCI 31 Poughkeepsie CLOUDY 38 27 64 NE14G29 29.86F WCI 30 Albany CLOUDY 39 24 55 E12G21 29.96S WCI 32 $$ NJZ001-105-106-008-010-013-015-019>022-104-231800- NEW JERSEY CITY SKY/WX TMP DP RH WIND PRES REMARKS Newark/Liberty CLOUDY 41 31 67 NE30G41 29.78F Teterboro CLOUDY 41 30 65 E20G31 29.79F Caldwell CLOUDY 41 29 62 E20G33 29.78F Somerville CLOUDY 40 29 64 E14G40 29.71F WCI 32 Linden CLOUDY 40 30 67 E25G33 29.76F WCI 30 Sussex CLOUDY 38 30 73 NE21G30 29.79F WCI 28 Andover N/A 38 29 70 NE9G29 29.75F WCI 31 Trenton LGT RAIN 38 35 89 E24G44 29.67F WCI 27 Millville CLOUDY 43 41 93 E26G48 29.53F Atlantic City LGT RAIN 43 39 86 NE26G51 29.56F FOG Wrightstown CLOUDY 39 37 92 NE32G49 29.61F WCI 26 Toms River RAIN 40 38 93 NE18G32 29.69F WCI 31 Belmar CLOUDY 39 36 89 NE29G43 29.70F WCI 27 $$ PAZ047>061-062-071-231800- EASTERN PENNSYLVANIA CITY SKY/WX TMP DP RH WIND PRES REMARKS Philadelphia LGT RAIN 40 36 86 E28G45 29.62F WCI 29 Allentown CLOUDY 41 29 62 NE26G35 29.67F Scranton CLOUDY 38 31 76 E10G25 29.71F WCI 31 $$ CTZ002-004>006-009-010-012-RIZ004-006-007-MAZ004-011-015-231800- SOUTHERN NEW ENGLAND IN CT CITY SKY/WX TMP DP RH WIND PRES REMARKS Bradley INTL CLOUDY 38 30 73 NE16 29.92F WCI 29 Hartford CLOUDY 39 30 70 E14G24 29.91F WCI 31 Danbury CLOUDY 37 30 75 NE15G24 29.85F WCI 28 Wtrbury/Oxford CLOUDY 36 28 75 E17G29 29.85F WCI 25 Bridgeport CLOUDY 42 30 62 E21 29.84F Meriden CLOUDY 40 29 64 NE15G23 29.89F WCI 32 New Haven CLOUDY 41 29 62 NE14G24 29.84F Chester CLOUDY 39 28 65 E13G26 29.85F WCI 32 Groton CLOUDY 40 30 67 NE21G37 29.87F WCI 30 Wilimantic CLOUDY 40 31 70 E10G25 29.93S WCI 33 IN RI CITY SKY/WX TMP DP RH WIND PRES REMARKS Providence CLOUDY 39 31 72 NE18G25 29.96S WCI 30 Block Island NOT AVBL Westerly CLOUDY 40 30 67 NE17G29 29.90F WCI 31 IN MA CITY SKY/WX TMP DP RH WIND PRES REMARKS Boston FLURRIES 36 34 92 NE25G32 30.02F WCI 24 Worcester CLOUDY 30 28 92 NE9G22 29.93F WCI 22 Westfield CLOUDY 36 28 73 NE10G20 29.94F WCI 28 Provincetown LGT RAIN 37 34 89 E22G29 29.98F WCI 26 Nantucket CLOUDY 40 33 76 NE24G33 29.90F WCI 29 $$ ANZ330-335-338-340-345-350-353-355-231800- COASTAL MARINE OBSERVATIONS STATION/POSITION TIME SKY/WX TEMP WIND PRES VSBY WAVE AIR SEA DIR/SP/G HT/PER (UTC) (F) (DEG/KT/KT) (MB) (MI) (FT/S) NY HARB ENTRANCE 1550 41 42 60/ 35/ 41 1007.5 14/10 20 S FIRE ISLAND 1650 43 45 60/ 35/ 45 1004.9 18/ 9 GREAT SOUTH BAY NOT AVBL 23 SSW MONTAUK P 1650 41 47 70/ 33/ 41 1008.6 13/ 8 15 E BARNEGAT LI 1630 47 N/A 17/11 HUDSON CANYON 1650 48 52 1002.3 16/10 KINGS POINT 1636 39 39 1008.7 EXECUTION ROCKS 1645 40 70/ 27/ 37 N/A CENTRAL LI SOUND 1615 40 70/ 23/ 29 N/A 5/ 6 EASTERN LI SOUND NOT AVBL ROBBINS REEF 1648 40 60/ 27/ 37 1008.1 $$ >>>>>>>>>>>>>>>>>>>>>>>>>>>> KEY <<<<<<<<<<<<<<<<<<<<<<<<<<< > < > SKY/WX - Sky Condition/Present Weather < > TMP - Temperature in Fahrenheit < > DP - Dew Point in Fahrenheit < > RH - Relative Humidity in Percent < > WIND - Direction (from) and Speed in MPH < > PRES - Mean Sea Level Pressure (inches of Hg) < > WCI - Wind Chill Index < > VSB - VISIBILITY IN MILES < > HX - HEAT INDEX < > TC - TEMPERATURE IN CELSIUS < > VRB - VARIABLE WIND DIRECTION < > < >>>>>>>>>>>>>>>>>>>>>>>>>>>> KEY <<<<<<<<<<<<<<<<<<<<<<<<<<<

USA.gov is the U.S. government's official web portal to all federal, state and local government web resources and services.